Winchester, VA

8:20 PM EST on January 22, 2018 (GMT -0500)
Winchester Regional

Weather History for KOKV - January, 2013

Change the Weather History Date:

Friday, January 18, 2013

  Actual Average Record
Temperature  
Mean Temperature 32 °F -  
Max Temperature 35 °F 38 °F 70 °F (1990)
Min Temperature 28 °F 23 °F 3 °F (2003)
Degree Days  
Heating Degree Days 34    
Moisture  
Dew Point 20 °F    
Average Humidity 61    
Maximum Humidity 87    
Minimum Humidity 41    
Precipitation  
Precipitation 0.00 in - - ()
Sea Level Pressure  
Sea Level Pressure 30.34 in    
Wind  
Wind Speed 11 mph (WNW)    
Max Wind Speed 25 mph    
Max Gust Speed 33 mph    
Visibility 10 miles    
Events      
Averages and records for this station are not official NWS values.
T = Trace of Precipitation, MM = Missing Value Source: NWS Daily Summary

Daily Weather History Graph

Daily Weather History Graph

Search for Another Location

Airport or City:

Trip Planner

Search our weather history database for the weather conditions in past years. The results will help you decide how hot, cold, wet, or windy it might be!

Date:

Astronomy

Jan. 18, 2013 Rise Set
Actual Time 7:28 AM EST 5:17 PM EST
Civil Twilight 6:59 AM EST 5:46 PM EST
Nautical Twilight 6:27 AM EST 6:19 PM EST
Astronomical Twilight 5:55 AM EST 6:51 PM EST
Moon 11:09 AM EST (1/18) 12:02 AM EST (1/18)
Length of Visible Light 10h 47m
Length of Day
9h 48m
Waxing Crescent, 47% of the Moon is Illuminated
Jan 18
Waxing Crescent
Jan 18
First Quarter
Jan 26
Full
Feb 3
Last Quarter
Feb 10
New

Hourly Weather History & Observations

Time (EST) Temp. Windchill Dew Point Humidity Pressure Visibility Wind Dir Wind Speed Gust Speed Precip Events Conditions
12:15 AM 33.8 °F 25.8 °F 30.2 °F 87% 30.08 in 10.0 mi WNW 10.4 mph 16.1 mph N/A   Clear
12:35 AM 35.6 °F 27.5 °F 30.2 °F 81% 30.09 in 10.0 mi WNW 11.5 mph 18.4 mph N/A   Scattered Clouds
12:55 AM 35.6 °F 27.1 °F 28.4 °F 75% 30.10 in 10.0 mi West 12.7 mph 18.4 mph N/A   Clear
1:15 AM 35.6 °F 28.6 °F 28.4 °F 75% 30.11 in 10.0 mi WNW 9.2 mph - N/A   Clear
1:35 AM 35.6 °F 27.1 °F 28.4 °F 75% 30.12 in 10.0 mi WNW 12.7 mph 19.6 mph N/A   Clear
1:55 AM 35.6 °F 24.5 °F 28.4 °F 75% 30.13 in 10.0 mi WNW 20.7 mph 28.8 mph N/A   Clear
2:15 AM 33.8 °F 23.2 °F 28.4 °F 81% 30.15 in 10.0 mi WNW 17.3 mph 27.6 mph N/A   Clear
2:35 AM 33.8 °F 24.3 °F 26.6 °F 75% 30.15 in 10.0 mi West 13.8 mph 21.9 mph N/A   Scattered Clouds
2:55 AM 33.8 °F 25.3 °F 26.6 °F 75% 30.16 in 10.0 mi West 11.5 mph - N/A   Scattered Clouds
3:15 AM 35.6 °F 26.6 °F 26.6 °F 70% 30.16 in 10.0 mi WNW 13.8 mph 21.9 mph N/A   Mostly Cloudy
3:35 AM 35.6 °F 24.5 °F 26.6 °F 70% 30.16 in 10.0 mi WNW 20.7 mph 25.3 mph N/A   Mostly Cloudy
3:55 AM 35.6 °F 27.5 °F 26.6 °F 70% 30.16 in 10.0 mi WNW 11.5 mph 25.3 mph N/A   Overcast
4:15 AM 35.6 °F 24.5 °F 26.6 °F 70% 30.17 in 10.0 mi WNW 20.7 mph 27.6 mph N/A   Overcast
4:35 AM 35.6 °F 25.5 °F 24.8 °F 65% 30.18 in 10.0 mi NW 17.3 mph 26.5 mph N/A   Overcast
4:55 AM 33.8 °F 22.8 °F 23.0 °F 65% 30.20 in 10.0 mi NW 18.4 mph 24.2 mph N/A   Overcast
5:15 AM 33.8 °F 21.3 °F 21.2 °F 60% 30.21 in 10.0 mi NW 24.2 mph 31.1 mph N/A   Mostly Cloudy
5:35 AM 32.0 °F 19.2 °F 21.2 °F 64% 30.22 in 10.0 mi NW 23.0 mph 32.2 mph N/A   Clear
5:55 AM 32.0 °F 20.8 °F 19.4 °F 60% 30.24 in 10.0 mi NW 17.3 mph 33.4 mph N/A   Clear
6:15 AM 32.0 °F 18.6 °F 19.4 °F 60% 30.26 in 10.0 mi NW 25.3 mph 31.1 mph N/A   Scattered Clouds
6:35 AM 32.0 °F 19.8 °F 19.4 °F 60% 30.28 in 10.0 mi NW 20.7 mph 28.8 mph N/A   Clear
6:55 AM 30.2 °F 18.1 °F 17.6 °F 60% 30.30 in 10.0 mi NW 18.4 mph 27.6 mph N/A   Clear
7:15 AM 30.2 °F 18.9 °F 17.6 °F 60% 30.32 in 10.0 mi NW 16.1 mph 29.9 mph N/A   Scattered Clouds
7:35 AM 30.2 °F 18.5 °F 17.6 °F 60% 30.33 in 10.0 mi NW 17.3 mph 24.2 mph N/A   Scattered Clouds
7:55 AM 30.2 °F 20.8 °F 17.6 °F 60% 30.36 in 10.0 mi NNW 11.5 mph 23.0 mph N/A   Scattered Clouds
8:15 AM 30.2 °F 22.6 °F 15.8 °F 55% 30.37 in 10.0 mi NW 8.1 mph 18.4 mph N/A   Clear
8:35 AM 30.2 °F 20.2 °F 17.6 °F 60% 30.39 in 10.0 mi NW 12.7 mph 18.4 mph N/A   Clear
8:55 AM 30.2 °F 19.8 °F 17.6 °F 60% 30.40 in 10.0 mi NNW 13.8 mph 19.6 mph N/A   Clear
9:15 AM 30.2 °F 21.3 °F 17.6 °F 60% 30.42 in 10.0 mi NW 10.4 mph 24.2 mph N/A   Clear
9:35 AM 30.2 °F 19.3 °F 17.6 °F 60% 30.43 in 10.0 mi NNW 15.0 mph - N/A   Clear
9:55 AM 32.0 °F 24.2 °F 19.4 °F 60% 30.44 in 10.0 mi NNW 9.2 mph 18.4 mph N/A   Clear
10:15 AM 32.0 °F 23.6 °F 19.4 °F 60% 30.45 in 10.0 mi NW 10.4 mph 16.1 mph N/A   Clear
10:35 AM 32.0 °F 22.5 °F 19.4 °F 60% 30.46 in 10.0 mi NW 12.7 mph - N/A   Scattered Clouds
10:55 AM 32.0 °F 24.2 °F 19.4 °F 60% 30.46 in 10.0 mi NNW 9.2 mph 18.4 mph N/A   Clear
11:15 AM 32.0 °F 24.8 °F 17.6 °F 55% 30.46 in 10.0 mi NNW 8.1 mph - N/A   Scattered Clouds
11:35 AM 32.0 °F 26.4 °F 17.6 °F 55% 30.46 in 10.0 mi NW 5.8 mph - N/A   Scattered Clouds
11:55 AM 32.0 °F 24.8 °F 17.6 °F 55% 30.45 in 10.0 mi WNW 8.1 mph - N/A   Clear
12:15 PM 32.0 °F 23.6 °F 17.6 °F 55% 30.43 in 10.0 mi NW 10.4 mph 17.3 mph N/A   Unknown
12:35 PM 32.0 °F 23.0 °F 19.4 °F 60% 30.43 in 10.0 mi NW 11.5 mph - N/A   Unknown
12:55 PM 33.8 °F 28.6 °F 17.6 °F 52% 30.43 in 10.0 mi NNW 5.8 mph - N/A   Scattered Clouds
1:15 PM 33.8 °F 27.7 °F 17.6 °F 52% 30.43 in 10.0 mi NNW 6.9 mph - N/A   Clear
1:35 PM 33.8 °F 28.6 °F 17.6 °F 52% 30.44 in 10.0 mi West 5.8 mph - N/A   Clear
1:55 PM 33.8 °F 28.6 °F 17.6 °F 52% 30.44 in 10.0 mi NW 5.8 mph 10.4 mph N/A   Clear
2:15 PM 33.8 °F 26.4 °F 15.8 °F 48% 30.43 in 10.0 mi NNW 9.2 mph - N/A   Clear
2:35 PM 33.8 °F 27.0 °F 14.0 °F 44% 30.44 in 10.0 mi NW 8.1 mph - N/A   Clear
2:55 PM 35.6 °F 32.8 °F 14.0 °F 41% 30.43 in 10.0 mi NW 3.5 mph - N/A   Clear
3:15 PM 35.6 °F - 14.0 °F 41% 30.43 in 10.0 mi Calm Calm - N/A   Clear
3:35 PM 35.6 °F 30.7 °F 15.8 °F 44% 30.44 in 10.0 mi West 5.8 mph - N/A   Clear
3:55 PM 35.6 °F 32.8 °F 15.8 °F 44% 30.44 in 10.0 mi West 3.5 mph - N/A   Clear
4:15 PM 35.6 °F - 15.8 °F 44% 30.44 in 10.0 mi Calm Calm - N/A   Clear
4:35 PM 35.6 °F - 15.8 °F 44% 30.44 in 10.0 mi Calm Calm - N/A   Clear
4:55 PM 35.6 °F - 15.8 °F 44% 30.43 in 10.0 mi Calm Calm - N/A   Clear
5:15 PM 33.8 °F 29.6 °F 17.6 °F 52% 30.43 in 10.0 mi SE 4.6 mph - N/A   Scattered Clouds
5:35 PM 32.0 °F 27.5 °F 17.6 °F 55% 30.42 in 10.0 mi ESE 4.6 mph - N/A   Scattered Clouds
5:55 PM 32.0 °F 27.5 °F 17.6 °F 55% 30.42 in 10.0 mi SE 4.6 mph - N/A   Clear
6:15 PM 32.0 °F 28.7 °F 19.4 °F 60% 30.43 in 10.0 mi SE 3.5 mph - N/A   Clear
6:35 PM 30.2 °F 26.7 °F 17.6 °F 60% 30.42 in 10.0 mi SE 3.5 mph - N/A   Scattered Clouds
6:55 PM 28.4 °F 23.3 °F 19.4 °F 69% 30.42 in 10.0 mi SE 4.6 mph - N/A   Scattered Clouds
7:15 PM 30.2 °F 26.7 °F 17.6 °F 60% 30.43 in 10.0 mi SSE 3.5 mph - N/A   Clear
7:35 PM 32.0 °F 27.5 °F 17.6 °F 55% 30.43 in 10.0 mi SSE 4.6 mph - N/A   Clear
7:55 PM 32.0 °F 26.4 °F 19.4 °F 60% 30.42 in 10.0 mi South 5.8 mph - N/A   Clear
8:15 PM 32.0 °F 27.5 °F 19.4 °F 60% 30.41 in 10.0 mi South 4.6 mph - N/A   Clear
8:35 PM 32.0 °F 26.4 °F 19.4 °F 60% 30.42 in 10.0 mi South 5.8 mph - N/A   Clear
8:55 PM 32.0 °F 27.5 °F 19.4 °F 60% 30.41 in 10.0 mi South 4.6 mph - N/A   Clear
9:15 PM 32.0 °F 27.5 °F 19.4 °F 60% 30.41 in 10.0 mi SSW 4.6 mph - N/A   Clear
9:35 PM 30.2 °F 25.4 °F 19.4 °F 64% 30.41 in 10.0 mi SSW 4.6 mph - N/A   Scattered Clouds
9:55 PM 30.2 °F 24.3 °F 21.2 °F 69% 30.40 in 10.0 mi South 5.8 mph - N/A   Scattered Clouds
10:15 PM 30.2 °F 25.4 °F 21.2 °F 69% 30.39 in 10.0 mi SSW 4.6 mph - N/A   Clear
10:35 PM 30.2 °F 24.3 °F 21.2 °F 69% 30.38 in 10.0 mi South 5.8 mph - N/A   Scattered Clouds
10:55 PM 30.2 °F 23.4 °F 21.2 °F 69% 30.37 in 10.0 mi SSW 6.9 mph - N/A   Clear
11:15 PM 30.2 °F 24.3 °F 21.2 °F 69% 30.36 in 10.0 mi SSW 5.8 mph - N/A   Clear
11:35 PM 30.2 °F 24.3 °F 21.2 °F 69% 30.35 in 10.0 mi South 5.8 mph - N/A   Clear
11:55 PM 30.2 °F 23.4 °F 21.2 °F 69% 30.35 in 10.0 mi South 6.9 mph - N/A   Clear